This is the latest recevied weather packets stored in our database for station/object KA3BQE-13. If no packets are shown the sender has not sent any weather packets the latest 10 day(s).
| Time | Temp. | Humidity | Pressure | Rain* | Wind** | Luminosity | Snow |
|---|---|---|---|---|---|---|---|
| 1777899689 | 17.22° C | 73% | 1007.4 hPa | 0 mm | - | 190 W/m² | - |
| 1777899387 | 16.67° C | 75% | 1007.4 hPa | 0 mm | - | 157 W/m² | - |
| 1777899084 | 16.11° C | 76% | 1007.6 hPa | 0 mm | - | 135 W/m² | - |
| 1777898781 | 15.56° C | 77% | 1007.5 hPa | 0 mm | - | 120 W/m² | - |
| 1777898479 | 16.11° C | 78% | 1007.5 hPa | 0 mm | - | 109 W/m² | - |
| 1777898176 | 15° C | 80% | 1007.6 hPa | 0 mm | - | 101 W/m² | - |
| 1777897873 | 15° C | 81% | 1007.6 hPa | 0 mm | - | 95 W/m² | - |
| 1777897569 | 14.44° C | 82% | 1007.5 hPa | 0 mm | - | 90 W/m² | - |
| 1777897265 | 14.44° C | 83% | 1007.4 hPa | 0 mm | - | 86 W/m² | - |
| 1777896961 | 13.33° C | 88% | 1007.4 hPa | 0 mm | - | 80 W/m² | - |
| 1777896658 | 12.78° C | 92% | 1007.5 hPa | 0 mm | - | 78 W/m² | - |
| 1777896355 | 12.78° C | 98% | 1007.4 hPa | 0 mm | - | 73 W/m² | - |
| 1777896053 | 12.22° C | 99% | 1007.4 hPa | 0 mm | - | 68 W/m² | - |
| 1777895751 | 11.11° C | 99% | 1007.3 hPa | 0 mm | - | 62 W/m² | - |
| 1777895448 | 10° C | 99% | 1007.4 hPa | 0 mm | - | 54 W/m² | - |
| 1777895146 | 9.44° C | 99% | 1007.6 hPa | 0 mm | - | 35 W/m² | - |
| 1777894843 | 9.44° C | 99% | 1007.8 hPa | 0 mm | - | 29 W/m² | - |
| 1777894539 | 8.89° C | 99% | 1007.6 hPa | 0 mm | - | 31 W/m² | - |
| 1777894237 | 8.89° C | 99% | 1007.5 hPa | 0 mm | - | 27 W/m² | - |
| 1777893933 | 8.89° C | 99% | 1007.4 hPa | 0 mm | - | 21 W/m² | - |
| 1777893630 | 8.89° C | 99% | 1007.4 hPa | 0 mm | - | 19 W/m² | - |
| 1777893326 | 8.89° C | 99% | 1007.3 hPa | 0 mm | - | 14 W/m² | - |
| 1777893022 | 8.89° C | 99% | 1007.3 hPa | 0 mm | - | 11 W/m² | - |
| 1777892720 | 8.33° C | 99% | 1007.3 hPa | 0 mm | - | 9 W/m² | - |
| 1777892416 | 7.78° C | 99% | 1007.4 hPa | 0 mm | - | 5 W/m² | - |
* Rain latest hour (hover to see other rain measurements)
** Current wind speed in m/s (hover to see current wind gust speed)